LANDSAT 8

导读

LANDSAT 8是美国发射的陆地卫星,于2013年2月11日发射升空,作为美国陆地卫星系列的重要成员,它延续了 Landsat 系列对地观测的长期任务,携带了OLI陆地成像仪和TIRS热红外传感器,能为全球提供多光谱、中分辨率的地表观测数据,广泛应用于资源调查、环境监测、气候变化研究等多个领域,持续为地球科学研究提供支撑。

基本信息
目录编号:
39084
目录名称:
LANDSAT 8
国际标识:
2013-008A
轨道中心:
EARTH
卫星名称:
LANDSAT 8
卫星全名:
--
卫星状态:
在轨 (已飞行4960 天)
发射日期:
2013-02-11 UTC
国别 :
美国 (US)
星等 :
--
轨道信息
数据来源 国际轨道数据 AOE轨道数据
星历时间 2026-09-10T23:44:44+0800
12小时前
查看轨道信息
2026-09-07T00:00:00+0800
4天前
查看轨道信息
半长轴 7080.648km 7080.658km
偏心率 0.0001282 0.0001208
轨道倾角 98.223° 98.223°
近地点辐角 97.289° 99.776°
升交点赤经 322.743° 318.804°
平近点角 262.845° 225.900°
近地点 701.603km 701.665km
远地点 703.419km 703.377km
周期 98.826分钟 98.826分钟
每日圈数 14.571131 14.5711
详细信息
使用方式:
暂无
2D轨道图
3D轨道图
轨道高度分析图
轨道倾角分析图
轨道综合分析图
查看轨道综合分析图
与全量物体交会距离演化趋势
与全量物体交会风险概率演化趋势